Hourly Data Report for February 22, 2018

MIRAMICHI RCS
NEW BRUNSWICK

47°00'34.000" N
65°27'54.000" W
33.00 m
8100989
71744
ACQ

Download Data

Hourly Data (February 2018)
Hourly Data Report for February 22, 2018
TIME
LST
Temp Definition
°C
Dew Point Definition
°C
Rel Hum Definition
%
Precip. Amount Definition
mm

Wind Dir Definition
10's deg

Wind Spd Definition
km/h
Visibility Definition
km
Stn Press Definition
kPa
Hmdx Definition


Wind Chill Definition


Weather Definition


00:00 1.3 -8.4 48 0.0 30 23   101.81     LegendNANA
01:00 -0.3 -10.8 45 0.0 32 15   102.01   -5 LegendNANA
02:00 -2.0 -12.2 46 0.0 32 11   102.27   -6 LegendNANA
03:00 -3.9 -14.1 45 0.0 32 21   102.50   -10 LegendNANA
04:00 -5.2 -13.4 53 0.0 32 10   102.63   -10 LegendNANA
05:00 -6.2 -13.7 55 0.0 32 9   102.72   -10 LegendNANA
06:00 -7.3 -14.4 57 0.0 31 14   102.81   -13 LegendNANA
07:00 -8.5 -15.7 56 0.0 31 16   102.88   -15 LegendNANA
08:00 -8.9 -15.9 57 0.0 31 13   103.05   -15 LegendNANA
09:00 -8.6 -16.0 55 0.0 31 17   103.07   -15 LegendNANA
10:00 -7.4 -15.9 51 0.0 31 11   103.14   -12 LegendNANA
11:00 -5.9 -15.5 47 0.0 33 9   103.13   -10 LegendNANA
12:00 -4.7 -15.5 43 0.0 31 13   103.18   -10 LegendNANA
13:00 -3.1 -15.1 39 0.0 31 12   103.04   -8 LegendNANA
14:00 -2.2 -14.8 38 0.0 29 10   102.98   -6 LegendNANA
15:00 -1.8 -15.2 35 0.0 31 15   102.94   -7 LegendNANA
16:00 -2.2 -15.0 37 0.0 29 15   102.97   -7 LegendNANA
17:00 -2.8 -15.9 36 0.0 30 16   103.03   -8 LegendNANA
18:00 -3.7 -15.4 40 0.0 30 13   103.08   -9 LegendNANA
19:00 -4.3 -14.9 43 0.0 29 9   103.15   -8 LegendNANA
20:00 -5.7 -14.6 49 0.0 28 8   103.19   -9 LegendNANA
21:00 -6.4 -14.9 51 0.0 27 10   103.24   -11 LegendNANA
22:00 -7.4 -15.7 52 0.0 29 15   103.25   -14 LegendNANA
23:00 -8.4 -16.1 54 0.0 29 12   103.33   -14 LegendNANA

Notes on Data Quality.

Legend

  • E = Estimated
  • M = Missing
  • NA = Not Available*
  • [empty] = Indicates an unobserved value
Date modified: